This demonstration page uses our WeatherBlox Daily Observations layout. Learn more.

Left ArrowRight Arrow

Hourly Observations for January 7, 2015

Temp ( °F °C ) Dew Point ( °F °C ) Humidity (%) Winds ( mph kmh ) Pressure ( in mb ) Visibility ( mi km ) Precip ( " mm )
12:53 am 00:53 Clear 39 3.9 25 -3.9 57 57 NW 8 13 30.23 1024 10 16 0.00 0.00
1:53 am 01:53 Clear 37 2.8 25 -3.9 62 62 N 6 9 30.23 1024 10 16 0.00 0.00
2:53 am 02:53 Clear 36 2.2 24 -4.4 62 62 NNW 7 11 30.25 1025 10 16 0.00 0.00
3:53 am 03:53 Clear 34 1.1 23 -5 64 64 NNW 5 7 30.25 1024 10 16 0.00 0.00
4:53 am 04:53 Clear 33 0.6 22 -5.6 64 64 NNW 3 6 30.25 1024 10 16 0.00 0.00
5:53 am 05:53 Clear 32 0 22 -5.6 66 66 NW 3 6 30.25 1024 10 16 0.00 0.00
6:53 am 06:53 Clear 32 0 22 -5.6 66 66 NW 5 7 30.27 1025 10 16 0.00 0.00
7:53 am 07:53 Sunny 32 0 21 -6.1 64 64 NW 8 13 30.29 1026 10 16 0.00 0.00
8:53 am 08:53 Sunny 34 1.1 18 -7.8 52 52 NW 17 28 30.30 1026 10 16 0.00 0.00
9:53 am 09:53 Partly Cloudy 34 1.1 19 -7.2 54 54 NW 10 17 30.31 1027 10 16 0.00 0.00
10:53 am 10:53 Cloudy 37 2.8 19 -7.2 48 48 NW 18 30 30.31 1026 10 16 0.00 0.00
11:53 am 11:53 Mostly Sunny 36 2.2 18 -7.8 48 48 NW 16 26 30.29 1026 10 16 0.00 0.00
12:53 pm 12:53 Sunny 39 3.9 18 -7.8 43 43 NW 20 31 30.26 1025 10 16 0.00 0.00
1:53 pm 13:53 Sunny 38 3.3 18 -7.8 44 44 NW 22 35 30.26 1025 10 16 0.00 0.00
2:53 pm 14:53 Mostly Cloudy 35 1.7 16 -8.9 46 46 NW 21 33 30.29 1026 10 16 0.00 0.00
3:53 pm 15:53 Cloudy 32 0 13 -10.6 45 45 NNW 20 31 30.34 1028 10 16 0.00 0.00
4:53 pm 16:53 Mostly Sunny 31 -0.6 11 -11.7 43 43 NW 18 30 30.39 1029 10 16 0.00 0.00
5:53 pm 17:53 Cloudy 29 -1.7 9 -12.8 43 43 NNW 17 28 30.43 1031 10 16 0.00 0.00
6:53 pm 18:53 Clear 27 -2.8 5 -15 39 39 NW 16 26 30.48 1032 10 16 0.00 0.00
7:53 pm 19:53 Clear 22 -5.6 3 -16.1 44 44 NW 17 28 30.55 1035 10 16 0.00 0.00
8:53 pm 20:53 Clear 19 -7.2 0 -17.8 43 43 NNW 14 22 30.60 1036 10 16 0.00 0.00
9:53 pm 21:53 Clear 17 -8.3 -1 -18.3 45 45 NNW 16 26 30.62 1037 10 16 0.00 0.00
10:53 pm 22:53 Clear 16 -8.9 -1 -18.3 47 47 NNW 7 11 30.63 1037 10 16 0.00 0.00
11:53 pm 23:53 Clear 15 -9.4 -1 -18.3 49 49 NNW 13 20 30.64 1038 10 16 0.00 0.00

Powered by AerisWeather